GW1675 Weather Reports


time (UTC)temp
C
wind
direction
speed
KPH
gust
KPH
rain 1hr
cm
rain 24hr
cm
rain mn
cm
humidity
%
barometer
mb
20260903124611 32 162 6.4 11.3 0.00 0.00 0.00 69 1020.5
20260903123055 33 163 4.8 12.9 0.00 0.00 0.00 69 1020.5
20260903121554 32 165 6.4 11.3 0.00 0.00 0.00 69 1020.5
20260903120126 32 166 6.4 9.7 0.00 0.00 0.00 69 1020.7
20260903114558 31 167 8.0 14.5 0.00 0.00 0.00 69 1020.8
20260903113057 31 170 6.4 12.9 0.00 0.00 0.00 69 1020.8
20260903111556 31 171 6.4 11.3 0.00 0.00 0.00 69 1021.0
20260903110058 31 172 4.8 9.7 0.00 0.00 0.00 69 1021.0
20260903104603 30 174 4.8 12.9 0.00 0.00 0.00 68 1021.0
20260903103057 30 174 6.4 12.9 0.00 0.00 0.00 68 1021.0
20260903101554 31 176 4.8 11.3 0.00 0.00 0.00 68 1021.0
20260903100046 30 176 3.2 8.0 0.00 0.00 0.00 68 1020.7
20260903094607 31 175 4.8 8.0 0.00 0.00 0.00 68 1020.8
20260903093057 30 176 1.6 6.4 0.00 0.00 0.00 68 1020.8
20260903091551 29 176 1.6 3.2 0.00 0.00 0.00 68 1020.7
20260903090106 28 0 0.0 0.0 0.00 0.00 0.00 68 1020.6
20260903084556 27 0 0.0 0.0 0.00 0.00 0.00 67 1020.5
20260903083101 26 0 0.0 0.0 0.00 0.00 0.00 67 1020.5
20260903081615 25 0 0.0 0.0 0.00 0.00 0.00 67 1020.2
20260903080055 25 0 0.0 0.0 0.00 0.00 0.00 66 1020.4
20260903074605 25 0 0.0 0.0 0.00 0.00 0.00 66 1020.4
20260903073135 24 0 0.0 0.0 0.00 0.00 0.00 66 1020.3
20260903071618 23 0 0.0 0.0 0.00 0.00 0.00 66 1020.2
20260903070057 22 176 0.0 1.6 0.00 0.00 0.00 65 1020.1
20260903064558 22 0 0.0 1.6 0.00 0.00 0.00 65 1020.1
20260903063058 22 0 0.0 0.0 0.00 0.00 0.00 65 1019.9
20260903061555 21 0 0.0 0.0 0.00 0.00 0.00 65 1019.9
20260903060118 21 0 0.0 1.6 0.00 0.00 0.00 65 1019.6
20260903054555 21 0 0.0 0.0 0.00 0.00 0.00 65 1019.6
20260903053056 21 0 0.0 0.0 0.00 0.00 0.00 65 1019.6
20260903051608 21 0 0.0 0.0 0.00 0.00 0.00 65 1019.8
20260903050101 21 0 0.0 0.0 0.00 0.00 0.00 65 1019.9
20260903044553 21 0 0.0 0.0 0.00 0.00 0.00 65 1019.6
20260903043054 21 0 0.0 0.0 0.00 0.00 0.00 65 1019.7
20260903041602 21 0 0.0 1.6 0.00 0.00 0.00 65 1019.7
20260903040104 21 0 0.0 0.0 0.00 0.00 0.00 65 1019.8
20260903034555 21 175 1.6 4.8 0.00 0.00 0.00 64 1019.8
20260903033052 21 176 3.2 4.8 0.00 0.00 0.00 64 1019.8
20260903031557 21 176 1.6 4.8 0.00 0.00 0.00 64 1019.8
20260903030059 21 176 0.0 1.6 0.00 0.00 0.00 65 1019.8
20260903024557 22 0 0.0 0.0 0.00 0.00 0.00 65 1019.9
20260903023102 22 0 0.0 0.0 0.00 0.00 0.00 65 1019.8
20260903021608 22 0 1.6 4.8 0.00 0.00 0.00 65 1019.8
20260903020106 22 176 0.0 3.2 0.00 0.00 0.00 65 1019.6
20260903014604 23 0 0.0 0.0 0.00 0.00 0.00 65 1019.7
20260903013109 23 176 0.0 1.6 0.00 0.00 0.00 65 1019.7
20260903011559 23 0 0.0 0.0 0.00 0.00 0.00 65 1019.8
20260903010056 23 0 0.0 0.0 0.00 0.00 0.00 65 1019.8
20260903004555 23 0 0.0 1.6 0.00 0.00 0.00 65 1019.9
20260903003048 23 0 0.0 3.2 0.00 0.00 0.00 65 1019.9
20260903001612 24 176 0.0 0.0 0.00 0.00 0.00 65 1019.9
20260903000057 25 0 0.0 0.0 0.00 0.00 0.00 65 1019.9
20260902234612 25 176 3.2 4.8 0.00 0.00 0.00 65 1019.9
20260902233056 25 0 0.0 0.0 0.00 0.00 0.00 65 1019.9
20260902231612 25 0 0.0 1.6 0.00 0.00 0.00 65 1019.7
20260902230107 25 0 0.0 0.0 0.00 0.00 0.00 65 1019.6
20260902224554 25 175 0.0 3.2 0.00 0.00 0.00 65 1019.7
20260902223051 25 0 0.0 0.0 0.00 0.00 0.00 65 1019.7
20260902221559 25 0 0.0 0.0 0.00 0.00 0.00 65 1019.9
20260902214613 26 0 0.0 0.0 0.00 0.00 0.00 66 1020.1
20260902213102 26 0 0.0 0.0 0.00 0.00 0.00 66 1020.0
20260902211557 26 0 0.0 0.0 0.00 0.00 0.00 66 1019.8
20260902210056 26 0 0.0 0.0 0.00 0.00 0.00 66 1019.7
20260902204556 26 0 0.0 0.0 0.00 0.00 0.00 66 1019.5
20260902203101 27 0 0.0 0.0 0.00 0.00 0.00 66 1019.2
20260902201558 27 176 1.6 3.2 0.00 0.00 0.00 66 1019.2
20260902200054 28 175 0.0 1.6 0.00 0.00 0.00 66 1018.9
20260902194553 28 0 0.0 3.2 0.00 0.00 0.00 66 1018.6
20260902193104 28 0 1.6 3.2 0.00 0.00 0.00 66 1018.4
20260902191559 29 0 0.0 3.2 0.00 0.00 0.00 67 1018.4
20260902190059 30 176 0.0 1.6 0.00 0.00 0.00 67 1018.2
20260902184552 30 176 0.0 3.2 0.00 0.00 0.00 67 1018.1
20260902183102 31 176 1.6 4.8 0.00 0.00 0.00 67 1018.2
20260902181601 31 176 1.6 6.4 0.00 0.00 0.00 67 1018.5
20260902180105 31 176 1.6 6.4 0.00 0.00 0.00 68 1018.5
20260902174603 31 176 4.8 11.3 0.00 0.00 0.00 68 1018.6
20260902173053 31 176 6.4 11.3 0.00 0.00 0.00 68 1018.6
20260902171607 32 176 3.2 14.5 0.00 0.00 0.00 68 1018.6
20260902170058 32 176 4.8 9.7 0.00 0.00 0.00 68 1018.4
20260902164558 32 176 6.4 11.3 0.00 0.00 0.00 68 1018.4
20260902163051 31 176 4.8 11.3 0.00 0.00 0.00 68 1018.5
20260902161613 30 176 8.0 17.7 0.00 0.00 0.00 67 1018.6
20260902160055 31 184 9.7 22.5 0.00 0.00 0.00 68 1018.6
20260902154555 31 188 3.2 16.1 0.00 0.00 0.00 68 1018.3
20260902153048 31 180 9.7 19.3 0.00 0.00 0.00 68 1018.6
20260902151556 32 181 8.0 17.7 0.00 0.00 0.00 68 1018.8
20260902150055 33 181 9.7 17.7 0.00 0.00 0.00 68 1018.9
20260902144550 33 181 1.6 8.0 0.00 0.00 0.00 68 1018.9
20260902143052 32 181 3.2 11.3 0.00 0.00 0.00 68 1019.0
20260902141554 31 181 8.0 16.1 0.00 0.00 0.00 67 1019.4
20260902140053 31 181 8.0 16.1 0.00 0.00 0.00 67 1019.6
20260902134551 31 181 11.3 17.7 0.00 0.00 0.00 67 1020.0
20260902133100 31 182 8.0 16.1 0.00 0.00 0.00 67 1019.8
20260902131558 30 182 9.7 20.9 0.00 0.00 0.00 67 1019.9
20260902130056 31 182 9.7 16.1 0.00 0.00 0.00 67 1020.1